Other Public Products
Issued by NWS Charleston, SC

Home | Current Version | Previous Version | Text Only | Print | Product List | Glossary On
Versions: 1 2 3 4 5 6 7 8 9 10 11 12 13 14 15 16 17 18 19 20 21 22 23 24 25 26 27 28 29 30 31 32 33 34 35 36 37 38 39 40 41 42 43 44 45 46 47 48 49 50
205
FPUS82 KCHS 270927
OPUCHS

TEST...KCHS/KSAV Gateway Observations...TEST
National Weather Service Charleston SC
500 AM EDT SAT MAY 27 2017

NOTE: "fair" indicates few or no clouds below 12,000 feet with no
significant weather and/or obstructions to visibility.

SCZ050-WAZ558-NCZ071-TXZ119-213-PAZ071-DCZ001-FLZ074-172-MI076-
NYZ176-178-MAZ016-IL014-TNZ027-NJZ106-GAZ044-MD014-271000-

...Gateway Observations for Charleston International...

CITY           SKY/WX    TMP DP  RH WIND       PRES   REMARKS
Chas Airport   PTCLDY    65  58  78 SW5       30.00S
Seattle        CLEAR     61  47  59 CALM      30.04R
Charlotte      PTCLDY    65  58  78 CALM      29.98F
Dallas DFW     CLOUDY    80  75  84 S14       29.79S
Dallas Love    CLOUDY    80  74  81 S10       29.81S
Philladelphia  CLEAR     61  51  70 W10       29.89S
Wash National  PTCLDY    62  58  86 S3        29.93S
Baltimore      MOCLDY    59  55  87 CALM      29.92R
Miami          PTCLDY    82  78  88 SE3       30.03S HX  91
Detroit        MOCLDY    59  56  89 CALM      29.87S
Newark         PTCLDY    58  53  84 SW5       29.85R
Laguardia      PTCLDY    63  53  70 W14       29.83R
J F K          PTCLDY    62  55  77 W8        29.85R
Boston Logan   CLOUDY    53  50  89 NW7       29.80R
Ft. Lauderdale PTCLDY    80  78  94 CALM      30.02R
Chicago O`Hare CLOUDY    52  50  93 N6        29.87R
Chicago Midway MOCLDY    56  54  93 N8        29.86R
Houston Bush   CLOUDY    81  75  82 S6        29.89R
Houston Hobby  CLOUDY    80  75  84 S10       29.89R
Nashville      MOCLDY    73  61  65 S7        29.91F
Atlanta        PTCLDY    66  62  87 SW7       30.02F

$$

GAZ044-118-TXZ119-213-NCZ071-DCZ001-MDZ014-506-PAZ021-071-NJZ106-
NYZ176-178-MAZ106-OHZ011-021-055-MIZ076-KYZ091-ILZ014-INZ047-
MNZ060-ONZ431-271000-

...Gateway Observations for Savannah International...

CITY           SKY/WX    TMP DP  RH WIND       PRES   REMARKS
Savannah Arpt  PTCLDY    65  58  78 CALM      30.02S
Atlanta        PTCLDY    66  62  87 SW7       30.02F
Charlotte      PTCLDY    65  58  78 CALM      29.98F
Dallas DFW     CLOUDY    80  75  84 S14       29.79S
Houston Bush   CLOUDY    81  75  82 S6        29.89R
Wash National  PTCLDY    62  58  86 S3        29.93S
Wash Dulles    CLOUDY    56  54  93 SE3       29.92F
Baltimore      MOCLDY    59  55  87 CALM      29.92R
Philadelphia   CLEAR     61  51  70 W10       29.89S
Newark         PTCLDY    58  53  84 SW5       29.85R
Laguardia      PTCLDY    63  53  70 W14       29.83R
J F K          PTCLDY    62  55  77 W8        29.85R
Boston         CLOUDY    53  50  89 NW7       29.80R
Pittsburg      LGT RAIN  58  56  93 SW3       29.89S
Akron          LGT RAIN  57  54  89 E6        29.88F
Cleveland      CLOUDY    60  56  86 S6        29.88F
Cincinnati     CLOUDY    71  64  78 SW5       29.84R
Columbus       CLOUDY    63  63 100 NE5       29.83R
Detroit        MOCLDY    59  56  89 CALM      29.87S
Chicago O`Hare CLOUDY    52  50  93 N6        29.87R
Minneapolis    CLEAR     58  47  66 SW5       29.87R
Indianapolis   CLOUDY    68  66  93 W9        29.82R
Toronto Canada MOCLDY    57  54  88 W5        29.87S

$$




USA.gov is the U.S. government's official web portal to all federal, state and local government web resources and services.